Change the Weather History Date:

Saturday, March 9, 2013

  Actual Average (KOFK) Record (KOFK)
Temperature  
Mean Temperature 42 °F 35 °F  
Max Temperature 53 °F 45 °F 76 °F (1904)
Min Temperature 30 °F 24 °F -10 °F (1912)
Degree Days  
Heating Degree Days 24 30  
Month to date heating degree days 288  
Since 1 July heating degree days 5381  
Cooling Degree Days 0 0  
Month to date cooling degree days 0  
Year to date cooling degree days 0  
Moisture  
Dew Point 39 °F    
Average Humidity 94    
Maximum Humidity 99    
Minimum Humidity 80    
Precipitation  
Precipitation 0.15 in 0.04 in 0.74 in (1970)
Month to date precipitation 0.36  
Year to date precipitation 1.71  
Snow  
Snow 0.00 in 0.20 in - ()
Month to date snowfall 1.6  
Since 1 July snowfall 24.4  
Snow Depth -    
Sea Level Pressure  
Sea Level Pressure 29.68 in    
Wind  
Wind Speed 13 mph (ENE)    
Max Wind Speed 28 mph    
Max Gust Speed 37 mph    
Visibility 3 miles    
Events Fog , Rain , Snow , Thunderstorm    
T = Trace of Precipitation, MM = Missing Value Source: NWS Daily Summary

Daily Weather History Graph

Daily Weather History Graph

Search for Another Location

Airport or City:

Trip Planner

Search our weather history database for the weather conditions in past years. The results will help you decide how hot, cold, wet, or windy it might be!

Date:

Astronomy

Mar. 09, 2013 Rise Set
Actual Time 6:53 AM CST 6:32 PM CST
Civil Twilight 6:25 AM CST 7:00 PM CST
Nautical Twilight 5:53 AM CST 7:32 PM CST
Astronomical Twilight 5:21 AM CST 8:04 PM CST
Moon 5:19 AM CST (3/9) 4:34 PM CST (3/9)
Length of Visible Light 12h 34m
Length of Day
11h 38m
Waning Crescent, 5% of the Moon is Illuminated
Mar 9
Waning Crescent
Mar 11
New
Mar 19
First Quarter
Mar 27
Full
Apr 2
Last Quarter

Hourly Weather History & Observations

Time (CST) Temp. Windchill Dew Point Humidity Pressure Visibility Wind Dir Wind Speed Gust Speed Precip Events Conditions
12:15 AM 44.2 °F 38.4 °F 38.5 °F 80% 29.80 in 7.0 mi SE 11.5 mph - N/A   Overcast
12:35 AM 44.1 °F 39.0 °F 38.7 °F 81% 29.79 in 7.0 mi SE 9.2 mph - N/A   Overcast
12:55 AM 43.7 °F 39.1 °F 39.0 °F 84% 29.79 in 5.0 mi SE 8.1 mph - N/A   Haze
1:15 AM 43.9 °F 37.5 °F 39.7 °F 85% 29.78 in 5.0 mi ESE 12.7 mph 17.3 mph N/A   Overcast
1:35 AM 43.9 °F 38.8 °F 40.1 °F 87% 29.78 in 4.0 mi SE 9.2 mph - N/A   Overcast
1:55 AM 44.1 °F 38.1 °F 41.0 °F 89% 29.77 in 3.0 mi SE 11.5 mph - N/A   Overcast
2:15 AM 44.2 °F 38.8 °F 41.5 °F 90% 29.77 in 1.2 mi SE 10.4 mph - N/A   Drizzle
2:35 AM 45.0 °F 40.6 °F 42.8 °F 92% 29.75 in 1.0 mi SE 8.1 mph - N/A   Light Drizzle
2:55 AM 45.9 °F 40.8 °F 44.1 °F 93% 29.74 in 1.2 mi SSE 10.4 mph - N/A   Drizzle
3:15 AM 46.9 °F - 45.1 °F 93% 29.72 in 3.0 mi SE 6.9 mph - N/A   Overcast
3:35 AM 47.3 °F - 45.0 °F 92% 29.72 in 3.0 mi SSE 10.4 mph - N/A   Overcast
3:55 AM 46.9 °F - 44.6 °F 92% 29.71 in 2.5 mi SSE 11.5 mph - N/A Rain Light Rain
4:15 AM 46.9 °F - 44.8 °F 92% 29.70 in 1.8 mi SSE 11.5 mph - N/A   Light Drizzle
4:35 AM 46.8 °F - 44.6 °F 92% 29.69 in 2.0 mi SSE 10.4 mph - N/A Thunderstorm Overcast
4:55 AM 46.8 °F - 44.6 °F 92% 29.69 in 2.5 mi SSE 12.7 mph - N/A   Overcast
5:15 AM 46.4 °F 41.5 °F 44.1 °F 92% 29.68 in 3.0 mi SSE 10.4 mph - N/A Rain Light Rain
5:35 AM 47.3 °F - 45.0 °F 92% 29.68 in 4.0 mi SE 11.5 mph 17.3 mph 0.01 in   Overcast
5:55 AM 46.4 °F 42.4 °F 44.2 °F 92% 29.67 in 1.5 mi SE 8.1 mph - 0.01 in   Overcast
6:15 AM 45.9 °F 41.2 °F 44.2 °F 94% 29.66 in 1.5 mi SE 9.2 mph - N/A   Overcast
6:35 AM 45.7 °F 41.5 °F 44.4 °F 95% 29.64 in 0.8 mi SE 8.1 mph - N/A   Overcast
6:55 AM 45.9 °F 41.2 °F 44.6 °F 95% 29.64 in 0.8 mi SE 9.2 mph - N/A   Overcast
7:15 AM 45.9 °F 41.7 °F 44.8 °F 96% 29.63 in 0.8 mi SE 8.1 mph - N/A   Light Drizzle
7:35 AM 46.4 °F 42.4 °F 45.5 °F 97% 29.63 in 1.0 mi SE 8.1 mph - N/A   Light Drizzle
7:55 AM 46.4 °F 42.4 °F 45.5 °F 97% 29.63 in 0.8 mi SE 8.1 mph - N/A   Light Drizzle
8:15 AM 46.6 °F - 45.9 °F 97% 29.63 in 1.0 mi SE 9.2 mph - N/A   Drizzle
8:35 AM 46.8 °F - 46.4 °F 99% 29.63 in 1.0 mi SE 8.1 mph - N/A   Light Drizzle
8:55 AM 46.8 °F - 46.4 °F 99% 29.62 in 1.0 mi SE 9.2 mph - N/A   Light Drizzle
9:15 AM 46.8 °F - 46.4 °F 99% 29.62 in 1.0 mi SE 9.2 mph - N/A   Light Drizzle
9:35 AM 47.3 °F - 46.8 °F 98% 29.62 in 0.8 mi SSE 6.9 mph - N/A   Overcast
9:55 AM 47.3 °F - 47.1 °F 99% 29.61 in 0.2 mi SSE 10.4 mph - N/A Rain Light Rain
10:15 AM 47.8 °F - 47.5 °F 99% 29.60 in 0.2 mi SSE 9.2 mph - N/A Fog Fog
10:35 AM 49.5 °F - 49.1 °F 99% 29.60 in 0.5 mi SSE 8.1 mph - N/A Fog Fog
10:55 AM 50.0 °F - 49.5 °F 98% 29.60 in 1.0 mi SSE 10.4 mph - N/A   Overcast
11:15 AM 51.6 °F - 51.1 °F 98% 29.59 in 1.8 mi SSE 6.9 mph - N/A   Overcast
11:35 AM 52.9 °F - 52.7 °F 99% 29.59 in 3.0 mi SSE 11.5 mph - N/A   Overcast
11:55 AM 53.4 °F - 53.1 °F 99% 29.59 in 3.0 mi SSE 9.2 mph - N/A   Overcast
12:15 PM 52.3 °F - 51.8 °F 98% 29.59 in 3.0 mi SE 9.2 mph - N/A   Overcast
12:35 PM 47.7 °F - 47.1 °F 98% 29.59 in 3.0 mi NNW 15.0 mph 18.4 mph N/A   Overcast
12:55 PM 42.6 °F 35.2 °F 42.1 °F 98% 29.59 in 2.5 mi North 15.0 mph 20.7 mph N/A   Overcast
1:15 PM 42.3 °F 35.5 °F 41.9 °F 99% 29.58 in 1.8 mi North 12.7 mph 18.4 mph 0.03 in Rain Light Rain
1:35 PM 41.5 °F 34.2 °F 41.0 °F 98% 29.58 in 7.0 mi North 13.8 mph 20.7 mph 0.03 in   Overcast
1:55 PM 40.1 °F 31.6 °F 39.6 °F 98% 29.58 in 5.0 mi North 16.1 mph 24.2 mph 0.03 in   Overcast
2:15 PM 39.0 °F 29.6 °F 38.3 °F 97% 29.58 in 5.0 mi North 18.4 mph 25.3 mph N/A   Overcast
2:35 PM 38.1 °F 28.4 °F 37.6 °F 98% 29.60 in 4.0 mi NNW 18.4 mph 26.5 mph 0.01 in Rain Light Rain
2:55 PM 37.6 °F 28.1 °F 37.0 °F 98% 29.59 in 7.0 mi North 17.3 mph 27.6 mph 0.01 in Rain Light Rain
3:15 PM 37.2 °F 27.6 °F 36.5 °F 97% 29.61 in 3.0 mi NNW 17.3 mph 25.3 mph 0.01 in Rain Light Rain
3:35 PM 36.7 °F 26.3 °F 36.1 °F 98% 29.61 in 2.5 mi North 19.6 mph 27.6 mph 0.06 in   Overcast
3:55 PM 36.7 °F 25.1 °F 36.0 °F 97% 29.60 in 5.0 mi North 24.2 mph 29.9 mph 0.08 in Rain Light Rain
4:15 PM 36.5 °F 26.0 °F 35.8 °F 97% 29.62 in 10.0 mi North 19.6 mph 31.1 mph N/A Rain Light Rain
4:35 PM 35.2 °F 23.5 °F 34.3 °F 97% 29.63 in 10.0 mi North 23.0 mph 31.1 mph N/A   Overcast
4:55 PM 34.5 °F 23.8 °F 33.4 °F 96% 29.66 in 5.0 mi NNW 18.4 mph 28.8 mph N/A   Overcast
5:15 PM 33.8 °F 22.2 °F 32.7 °F 96% 29.66 in 4.0 mi North 20.7 mph 31.1 mph N/A Snow Light Snow
5:35 PM 33.3 °F 21.2 °F 32.2 °F 96% 29.67 in 5.0 mi North 21.9 mph 32.2 mph N/A   Overcast
5:55 PM 32.9 °F 21.3 °F 32.0 °F 96% 29.69 in 7.0 mi North 19.6 mph 28.8 mph N/A   Overcast
6:15 PM 32.9 °F 20.4 °F 32.0 °F 96% 29.69 in 10.0 mi North 23.0 mph 32.2 mph N/A   Overcast
6:35 PM 32.9 °F 19.8 °F 32.0 °F 96% 29.71 in 5.0 mi North 25.3 mph 31.1 mph N/A   Overcast
6:55 PM 32.5 °F 19.9 °F 32.0 °F 98% 29.72 in 5.0 mi NNW 23.0 mph 29.9 mph N/A   Overcast
7:15 PM 32.0 °F 20.5 °F 31.1 °F 96% 29.74 in 7.0 mi North 18.4 mph 32.2 mph N/A   Overcast
7:35 PM 32.0 °F 19.2 °F 30.4 °F 94% 29.74 in 2.5 mi North 23.0 mph 33.4 mph N/A Snow Light Snow
7:55 PM 31.5 °F 19.1 °F 29.8 °F 94% 29.74 in 0.8 mi North 20.7 mph 28.8 mph 0.02 in Snow Light Snow
8:15 PM 31.5 °F 18.8 °F 29.3 °F 92% 29.76 in 3.0 mi North 21.9 mph 29.9 mph N/A Snow Light Snow
8:35 PM 31.6 °F 18.7 °F 29.3 °F 91% 29.78 in 5.0 mi North 23.0 mph 29.9 mph N/A   Overcast
8:55 PM 31.6 °F 18.4 °F 29.1 °F 90% 29.78 in 4.0 mi North 24.2 mph 34.5 mph N/A   Overcast
9:15 PM 31.5 °F 17.4 °F 28.9 °F 90% 29.76 in 5.0 mi North 27.6 mph 34.5 mph N/A   Overcast
9:35 PM 31.1 °F 18.3 °F 28.8 °F 91% 29.78 in 2.5 mi North 21.9 mph 32.2 mph N/A Snow Light Snow
9:55 PM 31.1 °F 17.4 °F 28.4 °F 90% 29.79 in 2.0 mi North 25.3 mph 32.2 mph N/A Snow Light Snow
10:15 PM 31.3 °F 18.9 °F 28.9 °F 91% 29.79 in 2.0 mi North 20.7 mph 33.4 mph N/A Snow Light Snow
10:35 PM 31.1 °F 17.4 °F 28.4 °F 90% 29.79 in 4.0 mi North 25.3 mph 36.8 mph N/A   Overcast
10:55 PM 30.9 °F 18.4 °F 28.4 °F 90% 29.80 in 4.0 mi North 20.7 mph 32.2 mph N/A   Overcast
11:15 PM 31.1 °F 18.3 °F 28.4 °F 90% 29.80 in 4.0 mi North 21.9 mph 29.9 mph N/A   Overcast
11:35 PM 31.5 °F 19.4 °F 28.8 °F 90% 29.81 in 5.0 mi North 19.6 mph 33.4 mph N/A   Overcast
11:55 PM 31.5 °F 18.2 °F 28.8 °F 90% 29.82 in 4.0 mi North 24.2 mph 35.7 mph N/A   Overcast